GFSSGP_925_thetae_159.txt.gz
Theta_e
319 318 313 315 317 321 326 329 326 327 328 329 340 349 351 348 351 355 351 351 353 357 356 348 340 335 336 339 343 344 343 341 340 331 326 328 332 335 339 343 344 345 341 335 331 334 335 328 324
319 312 313 315 314 319 322 325 327 328 326 325 326 329 338 345 345 351 352 355 356 357 356 352 337 334 334 335 338 342 342 342 341 333 327 330 333 336 338 340 341 338 337 332 326 324 324 324 326
313 314 314 314 314 314 318 323 326 327 325 325 327 336 345 346 347 350 354 356 357 356 356 350 336 333 331 331 331 335 340 341 339 333 327 331 334 337 337 336 334 334 336 336 333 330 325 326 327
314 316 314 314 314 314 316 322 323 325 325 323 323 323 344 353 352 352 355 356 356 355 355 343 336 331 329 329 329 330 333 335 335 330 327 331 334 335 336 336 335 334 333 334 336 332 326 327 328
310 313 314 315 314 314 315 318 319 321 320 321 317 324 327 356 355 356 356 356 355 355 355 347 336 331 329 328 327 327 328 329 329 326 328 332 335 335 335 335 334 333 334 334 330 328 326 328 330
315 311 314 316 316 314 314 315 317 318 318 318 317 319 327 357 356 357 357 356 355 355 354 351 335 330 329 328 326 325 324 324 325 326 331 334 334 333 333 332 333 333 331 327 326 325 326 332 334
320 314 314 314 314 314 314 314 315 316 317 317 317 317 329 357 356 356 356 356 356 355 354 353 343 331 329 328 327 325 323 323 324 327 331 332 332 331 332 334 330 328 328 328 326 325 328 333 337
318 316 316 314 314 314 313 313 314 315 315 316 315 316 319 355 356 356 355 355 356 356 354 353 349 344 340 330 328 326 324 324 325 328 329 329 330 333 334 329 329 331 331 330 328 328 330 333 333
313 320 319 317 314 314 313 313 313 314 315 314 316 317 333 354 355 356 355 355 355 355 355 353 350 347 344 343 333 328 326 325 326 328 329 333 343 340 334 335 331 333 334 334 333 333 332 329 327
317 318 319 318 316 315 314 314 315 315 316 315 318 319 327 349 355 356 355 354 354 354 354 354 352 348 346 344 344 342 342 339 339 340 338 344 346 344 341 337 330 331 330 329 328 326 326 327 336
312 317 317 316 317 316 316 314 315 315 316 317 318 319 331 350 354 356 355 354 352 353 353 353 353 349 346 344 345 344 344 344 343 342 341 342 344 343 342 342 340 341 333 338 335 337 338 340 340
313 312 312 314 314 314 315 317 319 318 317 318 318 318 322 351 355 356 355 354 352 352 353 352 353 350 348 346 344 344 344 343 342 341 331 336 341 343 343 341 340 339 340 341 340 340 341 341 338
311 309 312 313 313 314 314 315 315 316 319 320 320 321 321 328 351 354 354 353 352 352 352 352 350 350 349 347 345 344 344 343 343 341 336 340 340 340 339 339 339 338 342 344 345 346 345 345 343
309 310 311 311 311 313 314 314 315 316 316 318 319 320 321 321 340 353 354 353 352 351 351 350 352 351 349 347 347 346 344 343 343 343 338 332 333 331 337 337 338 338 342 345 345 345 345 344 343
311 312 312 313 312 312 313 314 315 314 316 316 319 320 320 320 322 348 353 352 352 351 351 350 352 351 350 348 348 347 345 343 343 343 338 335 333 330 332 336 335 341 341 339 342 346 344 344 342
310 309 311 313 313 311 313 311 314 314 314 315 315 316 317 319 326 346 352 351 351 350 350 350 350 350 350 349 348 347 346 344 342 343 342 337 334 330 329 338 340 341 342 345 346 345 343 343 344
309 309 311 312 314 312 313 311 312 315 315 315 315 316 316 318 334 351 353 351 350 350 349 349 349 349 349 345 347 346 346 344 343 343 343 339 336 332 336 340 342 345 347 346 343 343 343 343 341
310 310 309 310 312 313 314 313 313 315 316 317 317 317 318 318 333 353 352 351 350 349 349 348 347 347 346 349 346 346 346 345 344 343 343 338 339 336 331 339 343 341 344 343 341 339 342 340 341
311 311 312 310 310 313 313 315 315 315 316 317 317 318 318 319 332 352 352 349 349 350 348 347 346 347 348 346 345 346 345 345 344 343 343 342 342 340 340 342 344 345 340 340 339 341 340 341 337
312 312 313 312 309 310 310 312 314 315 316 317 318 318 319 319 340 351 350 349 348 348 347 347 347 349 346 345 345 345 344 344 344 344 344 343 344 343 344 344 342 340 335 333 334 336 337 338 329
312 313 313 312 311 310 310 310 311 312 315 316 318 319 319 320 338 351 351 349 348 347 346 346 345 345 346 344 345 346 346 346 347 347 346 344 343 343 342 339 336 333 332 331 330 335 334 333 330
315 313 311 312 312 313 310 310 309 311 312 316 318 319 319 319 333 349 350 349 348 347 348 346 345 344 344 344 345 346 346 345 343 342 339 338 337 334 332 331 333 334 331 331 334 328 328 322 327
317 313 312 313 313 312 310 313 311 313 316 316 318 320 319 319 328 346 349 347 347 348 347 346 345 345 345 345 347 345 341 339 337 335 333 332 332 332 333 330 331 331 333 334 325 319 316 314 315
315 315 313 312 311 312 310 311 310 313 316 318 317 320 319 318 326 344 347 347 347 346 345 344 345 346 347 346 344 342 341 337 334 334 334 333 333 333 333 333 331 332 328 321 317 316 315 314 315
316 316 317 317 316 314 310 310 311 315 316 318 318 320 319 318 333 345 349 348 345 344 344 344 344 346 345 343 342 340 340 338 336 335 333 332 330 331 332 333 329 323 318 317 316 315 315 315 317
318 315 315 314 314 312 311 313 312 312 316 318 319 320 318 318 337 346 348 348 345 344 344 343 345 347 344 342 340 339 340 339 337 333 331 331 331 330 329 327 317 316 317 315 315 315 315 315 316
317 317 312 316 311 310 312 312 313 312 314 318 319 319 319 318 338 347 349 347 342 342 341 342 344 344 344 340 339 340 339 338 334 333 332 329 327 324 322 317 315 315 316 315 314 314 313 314 314
316 312 315 316 315 315 310 310 312 315 314 318 321 319 320 320 334 345 346 341 340 339 339 339 340 340 339 338 339 339 335 331 330 329 326 324 322 318 316 315 315 315 314 314 312 311 311 314 314
317 317 315 313 314 318 313 310 311 319 317 320 321 320 320 327 335 342 341 337 335 332 333 334 336 338 337 337 335 331 329 327 327 323 321 319 317 315 315 314 314 312 311 310 310 311 313 314 315
314 316 314 317 312 317 326 319 317 320 322 322 321 318 325 334 340 337 332 331 330 328 329 329 330 331 331 330 328 326 326 325 323 319 316 315 314 313 313 312 312 310 309 311 312 312 313 315 316

GFSSGP_925_thetae_162.txt.gz
Theta_e
323 322 317 316 321 323 329 332 332 332 331 331 334 336 343 345 352 358 351 354 357 359 357 350 340 341 342 345 345 346 339 330 328 330 332 333 334 339 343 345 343 340 340 341 340 341 340 328 325
324 316 315 317 317 322 327 328 332 332 331 331 331 332 336 339 342 351 352 353 358 359 358 352 339 341 343 345 346 344 335 332 329 328 330 334 335 340 345 345 345 342 339 335 337 337 332 326 326
320 316 318 316 317 318 324 327 328 331 330 330 331 331 336 345 348 349 352 354 357 359 357 352 338 340 343 345 346 343 337 337 332 327 329 333 334 338 342 343 344 341 337 329 326 325 325 326 329
317 317 318 318 318 318 319 324 325 327 331 330 330 330 335 355 354 353 354 354 357 357 355 352 338 337 339 343 345 343 341 341 334 328 330 333 334 336 339 338 335 335 335 334 332 330 326 329 331
316 319 320 319 320 320 319 320 322 324 327 330 329 330 331 349 352 356 355 356 357 356 355 350 337 334 334 338 343 342 342 341 336 329 330 332 335 337 337 336 335 334 334 335 336 332 328 329 329
318 317 318 320 320 321 321 320 319 322 324 326 325 328 329 351 356 357 357 357 356 355 355 349 336 332 331 333 337 338 339 339 336 329 330 333 336 337 338 337 336 335 334 334 330 329 327 329 330
322 320 319 320 321 321 321 320 319 319 322 325 324 324 329 348 357 359 358 357 356 355 353 350 344 336 330 330 331 331 333 334 331 328 330 334 336 337 336 334 335 335 332 329 327 326 327 332 335
320 322 322 321 321 320 321 319 319 319 319 322 322 320 324 333 356 359 357 356 356 355 353 349 346 342 343 339 328 327 327 328 327 327 332 335 335 336 335 336 333 331 330 329 326 326 328 333 336
318 321 320 320 321 320 320 318 318 319 319 320 320 319 324 347 355 358 358 357 356 355 353 349 346 342 340 341 338 329 326 326 328 332 334 336 339 340 338 339 334 332 332 331 330 330 333 334 332
316 318 317 318 320 320 320 319 318 317 318 319 319 320 320 338 349 355 359 357 356 355 354 350 346 344 342 342 343 339 338 336 336 338 340 338 342 341 338 339 333 333 333 333 332 330 328 326 335
314 316 316 317 320 321 320 320 319 318 319 319 319 321 321 331 343 348 354 357 357 355 354 352 349 347 344 342 341 340 339 338 337 339 341 342 344 344 339 341 337 338 331 336 333 337 338 340 339
312 313 314 316 319 319 319 320 321 319 319 320 320 321 321 328 343 346 350 356 357 356 355 354 352 349 346 344 343 343 342 341 341 341 344 345 343 343 340 339 338 339 337 339 339 340 344 345 345
312 312 312 313 315 316 318 319 319 320 320 321 321 321 321 323 334 350 352 353 357 356 356 355 354 351 348 347 345 345 345 345 344 343 344 342 339 341 341 340 337 336 338 341 342 345 347 348 348
311 312 312 313 312 314 316 317 318 319 319 319 320 321 322 323 324 339 352 354 357 356 355 354 354 353 350 349 347 346 346 345 345 345 344 342 340 341 338 339 338 337 341 345 346 347 349 349 349
313 313 313 313 313 314 313 313 315 316 318 319 321 321 321 322 323 327 347 352 357 356 355 354 354 354 352 350 349 348 347 345 345 345 346 344 343 343 337 336 336 338 346 349 348 350 350 350 348
312 312 313 312 314 313 313 312 313 314 316 317 318 321 321 322 323 323 326 350 355 356 356 353 354 354 354 351 351 349 348 346 345 346 347 346 344 342 341 336 334 341 346 347 349 351 349 347 346
313 314 312 312 313 314 314 313 313 314 316 317 318 319 320 320 321 322 327 343 353 355 355 352 355 354 354 352 352 351 350 348 346 346 347 347 344 341 338 338 339 348 348 350 349 348 347 345 339
312 313 312 312 312 312 314 314 313 315 316 317 318 319 320 321 321 321 335 346 353 355 354 355 355 354 354 353 352 350 350 349 347 347 347 348 343 341 340 344 346 349 348 347 347 346 342 337 333
314 313 314 314 314 312 314 316 315 315 315 317 319 320 321 321 322 321 342 350 354 355 354 354 354 354 353 351 348 348 347 348 347 347 347 346 343 341 341 342 348 348 346 345 343 343 341 332 330
316 316 316 316 315 315 315 314 313 315 316 318 319 320 322 322 323 324 347 352 354 355 355 354 353 353 350 348 347 345 346 347 346 345 346 345 345 346 346 346 344 340 335 334 331 333 336 334 334
317 317 316 316 316 316 315 315 315 314 313 315 317 319 321 323 323 331 349 355 356 356 355 354 352 349 348 348 348 348 348 349 348 348 347 347 346 344 341 339 337 332 331 331 330 330 330 335 335
318 316 316 315 315 319 316 319 316 315 315 313 315 318 320 322 323 334 352 358 357 356 355 353 351 352 350 348 347 347 344 346 345 344 341 339 338 338 337 337 335 333 333 332 330 330 330 328 330
317 316 317 318 318 316 317 317 316 315 314 313 314 317 320 322 323 331 353 356 355 355 353 352 351 350 349 347 347 348 344 340 338 338 337 334 334 334 333 332 332 331 333 332 331 328 320 321 321
316 318 319 318 318 324 318 318 317 315 315 314 316 315 319 322 323 329 350 354 355 354 353 352 351 349 348 348 349 343 341 338 336 335 334 333 332 332 332 330 330 331 330 329 321 317 316 319 321
316 322 324 325 324 321 315 316 317 314 314 316 316 317 319 322 324 329 351 355 355 354 353 352 350 349 348 350 346 343 340 340 340 339 335 332 332 332 330 331 331 330 324 320 320 320 321 321 320
319 319 322 325 321 317 315 315 315 315 314 316 317 319 319 323 324 331 349 353 354 353 352 348 349 350 348 346 346 345 344 344 341 335 332 331 331 327 330 327 324 320 317 318 316 319 319 319 319
320 321 318 320 317 318 315 315 314 315 314 314 319 319 320 324 324 338 349 352 352 352 349 349 349 348 346 347 347 346 345 341 337 335 334 328 327 325 324 320 319 316 317 318 318 319 319 318 318
318 317 323 321 319 320 315 314 313 315 314 314 318 322 323 324 328 343 350 353 351 348 348 349 348 348 346 347 346 342 339 336 332 330 328 329 327 324 320 318 316 317 316 316 316 316 317 317 317
319 319 319 317 316 321 316 314 316 313 315 314 318 322 324 324 336 347 349 347 344 345 347 348 349 345 346 344 338 334 334 331 330 328 330 327 323 320 318 318 317 317 316 315 317 317 317 318 318
316 317 317 322 319 316 317 319 321 313 316 316 320 322 324 326 343 345 340 339 340 342 342 342 342 342 334 332 331 331 332 331 328 327 325 322 320 318 317 316 315 314 314 316 317 317 317 318 318

GFSSGP_925_thetae_165.txt.gz
Theta_e
317 325 322 319 321 324 329 332 333 333 333 333 334 336 340 345 350 365 354 355 357 360 357 349 342 342 342 345 349 343 343 333 330 330 334 337 339 343 344 339 338 338 339 341 343 340 338 330 327
327 325 319 320 318 322 328 331 332 334 333 332 332 334 334 342 341 354 354 355 358 361 357 354 341 342 343 345 346 344 340 331 328 331 333 338 340 343 343 341 339 339 340 340 341 341 337 328 327
327 321 321 320 320 320 324 329 332 332 334 332 331 331 334 340 347 350 354 355 359 360 357 355 341 342 344 346 345 345 334 330 328 329 332 337 341 343 345 345 343 341 338 339 338 334 330 327 328
323 321 321 321 322 322 322 324 328 331 332 333 332 332 333 353 353 352 353 355 360 359 356 355 340 342 345 345 346 344 332 330 329 329 333 336 341 345 346 345 345 341 336 331 329 327 327 328 329
321 322 322 322 321 322 324 324 324 326 329 333 332 332 334 349 349 355 354 354 359 359 356 355 340 341 345 346 346 341 334 333 329 328 333 335 339 342 343 341 339 340 340 338 334 332 327 328 329
321 321 323 324 324 323 324 324 323 323 324 328 332 333 334 348 347 352 354 356 358 358 357 354 341 343 345 345 346 341 338 337 331 328 333 335 338 340 340 338 338 338 338 336 334 331 327 327 328
323 322 321 322 323 325 325 325 324 323 322 324 329 330 332 343 349 353 355 357 357 356 357 351 349 344 344 345 345 343 342 341 334 330 333 336 339 339 338 339 337 337 337 333 328 327 326 330 332
320 322 322 322 322 323 325 325 325 323 323 324 327 327 329 344 353 354 356 358 357 357 354 349 347 347 348 351 344 343 343 341 335 331 334 337 339 339 338 335 336 335 330 328 327 326 327 333 334
319 320 321 321 322 323 324 324 325 323 322 323 324 326 328 346 348 351 356 357 357 356 352 348 345 343 341 343 347 342 342 339 333 332 334 338 341 341 340 341 339 330 330 328 327 326 328 331 331
316 319 320 321 321 322 322 324 324 322 321 321 323 323 323 327 346 350 355 357 357 355 352 348 344 342 341 342 346 343 343 341 337 339 341 339 339 340 340 343 337 331 332 332 331 332 331 326 335
314 317 317 318 319 319 320 322 323 322 322 322 321 323 323 323 340 346 354 356 357 355 353 349 346 343 342 342 339 340 338 337 338 340 341 337 342 343 340 343 338 341 332 339 331 332 334 338 340
313 313 315 316 316 318 320 322 323 322 322 323 323 322 323 323 328 341 346 354 357 356 354 350 347 345 344 344 339 339 337 337 339 340 340 343 345 345 339 340 336 339 337 337 339 337 342 344 344
314 314 313 313 314 315 318 321 321 321 322 323 322 322 323 324 324 339 342 345 358 357 355 352 349 347 347 346 342 343 340 339 340 341 342 344 343 344 341 340 338 339 337 338 339 340 345 346 345
315 314 314 314 314 314 314 318 319 320 321 322 323 323 322 323 324 327 344 346 354 358 356 353 352 351 349 348 346 346 346 345 345 344 344 344 341 342 341 341 340 337 337 339 342 342 345 346 347
316 316 315 314 314 314 314 314 315 317 319 321 322 323 323 324 324 325 329 347 353 358 357 355 354 353 351 350 348 349 349 348 346 346 346 344 343 343 340 338 337 337 338 344 345 347 346 347 349
315 315 315 314 314 314 314 314 315 315 316 318 319 322 323 323 323 324 324 338 353 360 357 357 356 353 353 353 351 350 349 348 347 347 348 347 346 345 342 337 337 335 342 343 342 345 347 348 347
316 316 315 314 313 313 315 315 315 315 316 316 318 319 321 323 324 323 324 332 350 357 357 355 354 355 355 354 352 351 350 348 347 346 348 349 347 343 340 336 336 341 342 343 350 350 349 347 342
317 316 315 315 314 314 314 314 315 315 316 317 317 318 320 321 324 323 324 325 341 359 357 355 352 356 354 355 353 352 353 349 346 346 346 351 347 342 341 338 344 345 346 347 347 347 345 341 338
318 318 317 315 314 315 317 314 315 316 316 317 317 319 320 322 323 322 322 323 338 359 356 355 354 355 354 355 354 351 350 348 345 346 349 349 344 342 342 340 349 348 347 346 347 345 341 337 334
317 318 318 317 316 316 317 316 316 315 316 317 318 320 321 322 324 324 323 324 346 358 357 356 355 355 355 355 352 348 347 345 345 347 347 346 344 344 342 349 347 344 342 340 338 337 338 337 334
318 319 318 318 318 317 318 319 318 316 316 315 317 319 320 322 324 325 325 332 354 358 357 357 356 357 355 351 351 348 347 346 346 347 346 346 347 348 347 347 344 340 336 332 330 330 330 333 336
320 317 318 320 321 320 317 321 319 318 317 316 316 318 320 321 324 325 326 339 357 357 357 357 357 355 352 352 349 348 347 346 347 347 349 349 347 347 345 343 338 335 337 335 331 331 330 331 333
321 319 320 320 321 320 321 320 319 319 318 317 316 316 318 321 323 325 326 345 356 355 357 356 355 352 353 351 349 348 348 347 345 346 346 345 344 342 341 338 336 334 334 331 330 328 327 326 324
318 320 320 320 320 328 322 320 319 318 318 317 317 317 317 319 322 325 328 346 356 355 355 354 352 353 352 352 350 351 344 342 343 344 344 340 340 339 338 336 333 333 333 331 329 325 324 324 324
318 322 324 326 330 326 318 320 320 318 318 317 317 317 317 318 321 325 327 355 358 354 355 354 355 353 352 353 352 345 345 344 345 344 338 337 336 336 332 333 332 332 329 327 325 324 324 324 323
321 323 323 324 328 322 318 319 321 320 318 317 317 318 318 318 322 325 327 357 356 355 357 355 354 352 353 352 348 346 345 346 344 338 338 336 334 333 332 332 330 325 324 323 323 323 322 322 321
321 324 320 324 325 324 320 319 320 317 317 317 316 318 319 318 324 325 327 352 353 355 355 355 353 353 352 348 348 346 348 345 340 338 337 334 331 331 331 327 324 323 323 323 323 322 322 320 320
320 320 324 324 325 324 320 317 316 317 317 317 317 316 319 320 322 326 327 336 353 354 354 353 353 353 350 350 347 348 345 341 339 338 333 334 332 329 327 324 322 321 321 321 320 320 320 320 320
322 321 320 321 323 323 318 315 317 320 321 318 317 317 321 321 323 326 341 337 351 352 352 352 351 351 349 346 344 341 341 338 336 334 334 332 330 327 323 322 322 321 320 320 320 320 320 321 321
318 321 320 325 320 319 318 321 317 317 318 320 318 319 322 322 325 334 351 339 350 350 351 350 349 344 342 342 340 338 337 334 333 332 330 329 326 323 322 321 319 319 319 320 319 319 320 320 320

GFSSGP_925_thetae_168.txt.gz
Theta_e
313 320 325 323 320 321 324 329 331 331 332 334 335 335 337 340 355 373 357 355 358 358 355 344 342 343 350 351 346 341 339 335 331 329 332 339 347 349 336 336 339 340 342 344 341 341 336 329 327
324 326 327 321 318 319 323 327 330 332 333 333 333 333 335 338 355 356 355 358 358 358 352 347 343 342 344 349 347 340 341 334 329 331 334 340 345 345 338 339 341 342 343 345 343 341 331 326 325
324 331 324 321 320 319 320 325 329 331 332 333 332 333 333 342 353 354 356 360 360 358 355 348 343 342 342 347 347 341 340 332 329 331 335 340 344 344 341 340 341 343 344 343 342 340 330 325 325
321 324 322 321 321 321 321 322 323 325 328 333 333 332 333 352 353 355 356 360 360 358 356 346 342 341 342 346 347 344 337 330 329 330 336 341 350 345 344 344 344 341 338 334 329 326 325 326 327
323 324 322 323 322 322 323 324 324 324 325 330 333 333 337 349 353 354 355 359 360 357 358 346 341 340 343 346 345 344 333 329 329 329 335 344 351 347 347 346 344 342 337 330 329 328 326 326 327
323 323 324 323 323 324 324 324 324 324 325 326 329 333 338 346 350 353 354 359 359 358 358 345 342 341 343 345 345 344 332 330 329 330 336 343 345 346 344 340 339 340 338 336 335 331 326 326 327
321 322 322 321 321 323 324 326 325 324 324 324 327 328 340 346 349 353 355 357 359 359 357 347 350 351 344 345 346 341 333 333 329 331 336 337 341 342 340 338 338 336 335 333 330 328 325 327 328
318 320 321 322 321 321 323 324 326 326 324 326 325 324 334 351 350 353 354 357 359 359 356 351 354 354 346 348 346 339 336 336 331 331 334 336 338 339 338 338 336 335 334 329 326 325 324 329 331
317 318 320 320 321 322 323 323 325 326 325 325 324 324 341 348 349 352 355 357 358 359 355 351 352 353 354 352 349 342 342 340 335 333 335 336 342 339 337 338 341 329 328 327 325 323 323 329 330
314 317 318 319 320 320 321 322 323 324 324 323 323 324 330 340 345 350 357 357 357 357 352 349 347 349 350 352 351 348 348 343 340 339 335 335 344 339 343 341 341 328 328 326 325 325 328 329 328
313 315 316 317 318 319 319 319 320 320 323 323 322 323 324 328 341 345 350 356 358 356 352 348 345 344 344 348 348 349 347 345 342 342 332 340 343 340 341 343 337 329 330 331 329 325 326 332 338
314 313 313 314 316 316 317 317 318 320 323 324 324 323 323 324 330 344 348 352 357 355 351 347 344 342 343 345 343 343 341 339 340 343 332 338 343 342 342 343 337 338 338 339 338 337 339 344 342
315 314 315 315 314 314 314 315 316 319 322 323 323 324 323 324 325 335 342 348 356 355 352 348 345 342 345 339 341 340 338 337 341 344 333 341 345 344 339 342 337 339 340 337 340 337 344 346 345
316 316 316 315 314 314 314 314 314 317 321 322 321 323 324 324 325 328 340 343 357 357 352 349 346 346 345 340 342 339 339 337 340 343 337 346 344 343 342 342 340 340 337 338 339 340 344 343 346
316 316 316 316 315 315 314 314 313 315 317 320 321 322 323 324 324 326 326 340 347 356 356 351 348 350 346 342 345 343 341 340 342 344 339 346 343 343 341 341 339 338 337 338 344 346 345 344 347
316 316 315 315 315 315 314 313 314 314 315 316 317 319 322 324 324 324 325 326 340 357 355 353 350 350 348 348 350 347 347 346 347 346 345 344 341 345 339 340 339 337 336 342 341 344 348 347 346
317 318 317 316 316 315 314 313 314 315 316 317 317 318 319 322 325 325 324 326 344 359 350 352 352 352 350 350 351 351 349 350 348 349 348 346 345 346 340 339 337 336 338 342 349 349 348 344 342
318 318 318 318 318 316 315 314 314 315 315 316 317 318 318 320 322 324 326 324 331 360 352 350 350 354 351 352 351 353 349 351 349 350 350 348 348 345 342 338 341 340 343 349 348 345 344 341 337
319 320 319 319 318 317 316 316 316 316 315 315 317 318 319 319 321 322 325 324 335 360 357 355 354 353 354 354 353 353 352 352 348 347 351 349 348 344 338 344 347 346 347 348 347 347 343 338 333
320 320 320 318 318 318 318 319 316 316 316 315 317 318 320 320 320 323 326 327 335 361 358 356 355 353 354 354 353 354 350 351 347 352 351 348 346 343 340 350 348 346 345 344 344 343 339 337 333
320 320 320 319 319 319 318 320 320 316 318 318 316 318 320 321 322 325 328 328 327 361 359 355 354 354 354 353 353 353 347 347 349 349 348 345 345 344 344 349 346 344 343 339 334 333 331 333 332
319 318 319 321 320 320 320 324 320 319 319 319 319 317 318 320 323 325 328 331 331 360 359 356 356 354 355 352 356 353 349 349 351 348 348 346 347 348 348 346 343 338 336 335 334 332 331 330 333
320 319 320 322 322 323 324 321 321 319 321 321 320 318 318 319 322 324 327 328 343 360 359 358 357 356 356 355 352 350 349 350 349 350 350 349 347 346 342 340 337 338 335 333 330 330 329 326 324
318 318 319 322 323 329 321 321 322 320 321 319 321 319 318 318 320 322 325 327 354 360 359 359 357 355 354 351 352 350 351 350 351 349 346 344 341 341 338 336 334 335 333 332 329 326 325 325 323
322 323 330 330 330 327 319 320 321 320 320 320 320 319 319 318 319 321 323 328 348 357 357 356 355 353 351 352 352 350 348 348 348 344 341 340 337 337 334 333 334 332 330 328 326 324 323 323 323
324 325 325 326 329 324 319 327 323 321 321 321 319 319 321 319 318 320 323 327 357 358 356 355 352 352 346 352 350 348 348 347 345 340 340 340 334 334 333 333 331 328 326 322 324 324 322 322 322
321 325 321 324 322 327 321 319 322 320 320 319 318 319 320 321 319 320 323 326 355 356 355 354 352 351 350 352 349 348 347 345 341 341 338 335 333 332 331 328 325 324 324 324 323 323 321 320 320
318 318 327 324 324 323 320 321 318 319 320 320 321 320 320 321 320 320 322 327 354 355 354 353 352 351 351 350 348 349 344 341 341 337 334 333 332 330 327 325 323 323 322 321 321 321 321 321 322
320 323 323 321 322 325 323 318 318 320 319 319 320 321 319 320 320 319 322 344 355 354 354 353 353 353 350 349 349 345 341 340 337 336 334 332 329 327 325 323 322 322 321 321 318 320 321 321 320
317 322 321 325 319 321 322 324 318 319 318 317 319 321 320 319 320 320 339 347 345 353 351 351 352 350 348 348 342 340 338 336 336 333 331 328 326 324 323 321 320 321 321 320 320 321 321 321 319

GFSSGP_925_thetae_171.txt.gz
Theta_e
311 315 323 323 317 315 316 319 322 325 327 327 327 331 343 349 351 358 356 356 357 352 348 344 348 350 350 347 342 339 335 330 327 329 334 340 338 332 331 333 340 342 344 340 339 336 333 327 325
311 319 327 322 313 313 314 318 319 323 326 328 329 330 332 359 351 348 355 358 355 352 345 344 347 348 349 347 342 338 335 330 327 328 339 350 340 334 333 338 341 344 343 339 338 334 325 324 324
321 325 328 316 313 313 312 316 317 320 321 321 322 330 338 358 349 348 358 357 354 351 345 344 345 346 348 347 341 340 334 330 328 330 339 351 343 335 337 340 342 341 342 339 339 336 325 324 324
322 319 322 316 315 314 316 315 317 319 319 320 325 331 350 354 355 359 358 358 354 351 346 343 343 343 345 347 341 341 333 329 329 330 338 349 345 338 339 340 340 340 339 339 334 325 324 325 326
321 318 317 316 316 317 318 318 317 318 318 319 321 332 353 354 357 360 359 358 354 353 349 344 343 341 342 347 342 342 332 329 329 331 337 349 348 342 342 341 340 337 333 327 325 324 324 326 326
317 316 320 318 318 319 319 318 318 319 319 319 319 325 347 354 358 361 360 358 355 355 352 345 344 341 342 345 343 342 331 329 329 331 337 349 349 346 345 344 341 338 334 330 331 329 326 325 325
312 315 318 318 320 320 319 318 319 320 319 319 321 322 344 350 355 361 360 357 356 355 351 346 348 347 343 345 344 342 331 329 328 331 335 345 346 344 341 337 335 334 333 332 331 330 326 325 324
311 311 315 317 319 318 317 318 317 317 320 322 323 320 348 350 353 359 359 358 357 356 353 346 352 353 353 346 344 339 331 330 328 330 334 339 344 342 337 335 334 331 330 330 327 325 324 324 328
308 311 313 314 316 317 316 317 318 318 318 319 321 322 350 351 354 355 359 358 357 356 353 345 353 354 353 347 345 336 333 332 329 332 334 339 339 339 336 334 330 331 329 326 324 323 322 326 329
306 306 312 313 314 314 315 315 315 317 317 318 319 323 348 350 352 352 358 358 356 353 353 345 352 353 350 350 344 336 337 335 332 332 335 335 337 336 334 334 341 328 326 325 323 322 323 327 328
309 308 309 311 312 313 314 314 315 315 315 316 318 320 327 341 342 350 355 358 356 354 351 349 350 353 352 352 348 340 342 339 335 331 334 335 340 340 341 340 338 329 327 325 326 327 327 326 338
312 310 310 310 310 310 310 311 312 313 314 315 317 321 320 319 339 340 349 357 356 352 350 349 349 352 353 350 348 345 344 340 336 331 330 340 345 340 344 342 340 328 328 329 334 329 333 341 343
313 313 313 311 310 311 311 311 310 311 313 314 315 320 319 319 319 328 343 351 354 351 349 347 346 348 349 348 349 345 343 340 339 335 329 339 344 340 341 342 335 334 335 336 338 338 339 344 343
312 313 313 312 312 311 312 311 311 312 313 313 314 317 318 318 318 321 327 344 354 351 348 346 344 345 346 345 345 343 341 337 339 339 330 338 345 342 342 344 340 338 339 337 338 340 343 346 346
314 313 313 313 313 312 312 312 312 313 313 312 313 314 317 317 317 318 322 325 355 351 346 344 343 344 344 342 343 341 340 338 338 340 331 344 347 345 340 342 341 339 341 340 341 347 346 347 348
314 313 313 313 313 313 312 313 313 312 312 312 312 313 314 315 315 316 321 322 341 351 349 344 345 347 343 339 339 338 337 340 339 340 334 345 346 345 341 341 339 337 337 337 339 343 346 346 345
313 315 315 315 315 314 313 313 313 312 311 312 312 312 313 313 313 315 317 323 347 352 347 345 346 347 345 341 340 340 338 339 339 340 338 345 343 343 339 339 338 336 338 343 347 348 346 341 339
317 316 316 318 318 317 315 314 313 311 312 312 312 313 313 313 314 314 316 319 349 349 347 346 343 347 347 346 346 348 342 345 342 345 343 343 341 346 342 339 339 337 343 349 347 344 341 338 334
318 318 317 317 317 317 315 315 315 313 313 312 310 311 313 313 314 315 315 317 349 349 347 342 345 340 338 342 349 350 350 346 348 346 346 344 344 346 340 343 346 342 345 347 345 340 338 331 332
318 319 319 318 318 318 317 316 316 315 313 313 313 312 312 313 313 314 315 316 350 346 345 343 342 338 336 345 350 352 349 351 351 349 348 346 347 345 341 348 347 346 346 346 342 340 337 333 332
316 318 319 319 319 318 319 319 317 316 316 315 314 313 314 313 314 314 315 315 349 342 340 341 343 344 348 350 351 352 350 351 351 351 349 349 347 343 343 349 345 344 342 341 338 337 335 332 332
318 317 318 319 321 322 321 323 317 318 318 317 316 314 315 313 313 314 314 315 350 350 341 339 337 342 347 348 351 352 350 351 351 350 349 346 343 346 347 346 344 341 339 335 333 332 331 331 331
317 316 317 317 320 320 321 325 320 318 318 317 317 316 314 314 314 313 314 317 326 352 352 349 342 336 340 339 349 350 349 350 349 348 347 346 348 347 345 342 340 337 336 333 331 329 326 324 323
319 321 320 319 320 325 322 323 320 319 319 318 317 317 317 316 315 313 314 318 331 356 354 353 349 344 350 342 347 348 349 350 349 346 345 344 344 342 341 338 336 335 331 330 328 325 324 322 323
321 324 327 327 326 325 319 322 320 318 317 317 317 316 316 315 315 314 313 314 334 355 354 354 354 353 352 350 349 349 350 349 346 344 342 342 340 338 336 335 333 332 330 325 323 320 320 319 317
316 322 326 327 327 327 321 324 320 318 318 318 317 318 317 315 315 314 313 313 321 353 354 355 355 353 352 350 349 350 349 346 344 343 341 340 338 335 334 332 330 328 323 323 322 321 322 321 319
316 319 321 323 322 323 320 316 315 316 317 319 318 319 318 316 314 315 313 313 317 350 351 353 353 351 350 348 348 348 347 343 342 340 340 336 334 334 332 329 326 323 324 322 319 318 319 321 320
315 317 321 323 319 320 318 317 316 320 319 320 319 317 317 316 315 315 314 314 321 346 351 351 349 348 348 348 347 347 344 342 340 338 336 334 332 331 327 324 323 323 322 319 318 320 321 320 317
317 319 321 323 326 325 320 317 316 318 320 319 317 318 315 316 317 316 314 314 329 349 351 349 346 344 348 346 346 342 341 339 337 335 333 331 330 326 324 321 320 320 321 321 320 321 320 319 318
314 318 320 325 322 320 318 318 315 314 317 315 314 316 315 314 317 312 313 314 341 350 350 348 343 341 345 346 343 341 337 336 334 332 330 329 325 323 322 321 320 320 320 321 321 322 320 319 319

GFSSGP_925_thetae_174.txt.gz
Theta_e
312 310 323 322 316 311 313 315 318 320 322 324 324 327 348 348 350 358 356 357 354 349 346 349 351 349 346 341 338 332 327 325 328 332 335 337 338 336 329 335 339 342 341 340 337 335 329 325 323
311 317 325 319 313 311 312 314 316 317 319 317 317 324 343 352 349 356 359 358 351 347 347 350 351 349 345 341 337 332 327 325 327 330 337 335 334 331 332 338 341 341 337 336 333 330 325 325 323
319 325 325 322 310 311 310 312 315 316 315 316 315 320 346 355 346 354 358 357 352 348 346 350 351 348 345 341 338 332 327 326 327 333 339 334 330 331 337 340 342 340 337 337 336 325 323 323 323
318 316 319 318 314 312 312 313 313 315 317 317 318 319 351 349 349 354 358 355 352 347 346 349 350 348 345 341 338 332 327 327 328 334 337 333 331 333 337 338 339 340 338 336 335 325 323 324 324
318 313 318 316 315 314 315 315 315 315 316 316 317 321 357 352 357 358 357 355 352 346 345 348 349 349 345 340 339 332 328 327 328 332 333 335 332 334 336 337 337 336 336 333 324 323 324 324 324
312 313 318 318 318 317 316 315 315 317 317 316 316 332 353 358 358 358 356 353 353 347 345 345 348 348 346 341 339 333 328 327 329 332 332 335 334 334 335 335 336 335 331 326 326 325 324 323 323
311 310 315 318 318 317 318 315 315 314 314 316 316 317 353 359 358 357 355 354 353 350 346 345 346 347 347 341 340 333 329 328 328 331 331 336 340 341 341 340 339 336 333 330 331 329 326 323 323
308 307 312 312 315 314 315 314 314 314 316 316 317 316 347 360 359 356 355 354 353 350 349 348 346 353 350 343 341 334 329 328 328 331 337 341 344 343 341 339 335 332 332 331 329 328 325 323 326
306 305 307 310 313 313 311 312 314 315 314 315 315 316 332 360 359 356 356 357 355 353 350 352 352 356 355 349 344 334 330 329 330 335 339 343 343 340 334 332 332 330 330 329 327 324 322 324 328
305 302 306 310 310 310 310 311 312 313 313 314 314 315 319 330 349 357 357 356 356 355 352 352 352 352 355 354 352 340 335 334 333 336 338 339 339 337 333 333 330 330 328 326 324 323 322 324 328
308 306 306 307 307 308 309 309 310 311 311 312 313 313 316 325 329 346 357 356 355 354 353 352 351 355 353 351 351 346 344 335 336 336 334 335 337 336 334 332 338 332 326 324 323 323 323 327 332
311 310 309 308 308 308 308 310 310 310 310 311 312 313 315 318 322 331 332 356 354 354 353 352 347 351 352 351 346 341 340 336 333 332 333 334 335 335 335 336 335 334 325 324 325 326 328 333 339
312 311 311 311 309 309 310 310 310 310 311 312 311 312 313 316 316 318 322 341 354 352 352 353 351 349 349 349 344 339 339 337 333 331 333 334 338 336 341 341 339 336 326 327 332 334 338 341 340
310 312 312 311 310 310 312 311 310 312 312 311 311 311 311 313 315 315 316 332 354 350 350 351 351 351 348 347 345 341 341 339 335 331 332 336 343 340 341 342 341 333 331 333 335 339 338 338 341
312 312 312 312 312 311 311 311 312 312 310 310 310 311 311 311 313 313 315 320 352 348 346 349 348 350 349 346 344 343 342 341 336 331 330 337 343 343 341 341 342 340 338 339 339 337 341 344 347
312 311 312 311 313 313 311 312 312 311 310 312 311 310 311 311 311 312 313 329 351 346 345 345 346 347 348 346 345 343 342 340 335 331 328 336 341 346 343 342 342 340 339 340 343 346 348 344 344
312 313 314 314 313 313 311 313 312 311 310 311 311 309 310 310 310 312 313 321 346 345 344 344 344 344 345 343 341 338 337 337 333 334 335 335 345 345 343 341 340 338 339 343 345 345 344 341 339
316 315 314 315 315 315 315 315 314 311 310 310 311 309 310 312 310 312 313 322 344 345 343 343 344 343 342 341 340 337 336 335 338 338 341 335 345 343 343 340 339 341 344 347 346 344 340 337 338
317 317 318 317 317 316 316 316 316 313 311 308 307 309 308 310 311 312 313 322 338 345 343 343 346 343 342 340 341 340 339 338 339 339 340 337 345 343 344 340 341 345 347 347 345 342 340 336 334
317 318 319 318 317 317 317 317 317 313 313 311 311 311 309 310 311 311 312 329 347 347 345 345 345 344 343 344 343 342 342 341 338 340 342 341 344 345 343 342 346 345 345 343 342 341 335 332 332
315 316 316 316 316 316 317 319 318 317 314 313 313 311 310 311 311 312 312 322 344 346 345 344 346 346 344 344 348 348 347 346 347 347 345 343 345 346 344 345 345 344 344 342 341 339 337 332 325
316 315 316 317 316 318 320 322 319 318 318 315 315 312 311 311 311 312 311 312 343 345 344 344 343 344 344 342 345 349 348 348 349 349 348 346 347 345 344 345 345 343 342 340 337 333 332 332 325
322 320 319 318 317 315 318 324 319 318 319 317 316 315 313 311 311 310 310 311 337 344 343 342 342 341 338 333 342 350 348 348 350 350 349 348 346 346 345 344 343 340 336 334 332 331 328 325 326
318 318 319 320 318 323 319 320 318 317 317 317 316 314 314 313 313 313 311 313 318 338 341 341 341 340 341 340 342 351 349 349 348 346 345 345 345 343 342 340 337 335 332 331 329 325 323 321 319
315 317 320 324 322 324 319 320 319 317 317 316 316 315 315 314 313 314 311 310 315 342 340 339 341 341 341 346 348 351 349 349 346 344 343 341 340 339 337 337 334 331 330 327 325 320 318 319 319
314 315 315 322 317 319 320 324 321 316 316 316 316 315 313 313 312 313 314 312 312 342 343 342 338 338 341 344 345 348 348 347 344 343 341 339 339 337 336 334 332 329 325 322 319 317 316 317 321
312 314 315 320 319 321 317 316 315 314 314 316 315 315 314 313 314 313 313 308 313 337 346 345 343 337 340 341 338 345 346 346 342 340 341 339 336 335 334 331 328 324 321 319 317 319 319 319 319
313 314 315 321 324 324 317 316 315 317 318 317 316 315 314 313 314 310 310 309 314 336 344 343 347 341 339 345 337 339 345 340 339 339 337 335 333 333 331 326 323 323 320 317 319 321 319 317 317
313 314 319 320 321 320 321 317 312 315 316 315 314 316 314 312 314 313 310 310 315 334 345 344 348 348 347 347 344 340 336 339 338 337 336 333 333 331 327 323 323 319 317 319 320 318 318 318 317
312 315 317 322 323 322 319 320 314 312 314 313 314 314 312 313 312 314 312 311 319 333 345 345 345 345 345 344 341 340 337 337 337 335 333 333 331 327 323 322 320 320 320 321 320 318 318 317 315